Time,TemperatureF,DewpointF,PressureIn,WindDirection,WindDirectionDegrees,WindSpeedMPH,WindSpeedGustMPH,Humidity,HourlyPrecipIn,Conditions,Clouds,dailyrainin,SoftwareType,DateUTC
2013-01-24 00:00:00,-0.7,-6.4,30.17,North,0,0.0,0.0,76,0.00,,,0.00,WeatherCatV1.00B22,2013-01-24 05:00:00,
2013-01-24 00:01:00,-0.8,-6.5,30.17,North,0,0.0,0.0,76,0.00,,,0.00,WeatherCatV1.00B22,2013-01-24 05:01:00,
2013-01-24 00:06:00,-1.0,-6.7,30.17,North,0,0.0,0.0,76,0.00,,,0.00,WeatherCatV1.00B22,2013-01-24 05:06:00,
2013-01-24 00:11:00,-1.2,-6.6,30.17,North,0,0.0,0.0,77,0.00,,,0.00,WeatherCatV1.00B22,2013-01-24 05:11:00,
2013-01-24 00:16:00,-1.5,-6.9,30.17,North,0,0.0,0.0,77,0.00,,,0.00,WeatherCatV1.00B22,2013-01-24 05:16:00,
2013-01-24 00:21:00,-1.7,-6.9,30.17,North,0,0.0,0.0,78,0.00,,,0.00,WeatherCatV1.00B22,2013-01-24 05:21:00,
2013-01-24 00:26:00,-1.8,-6.7,30.17,North,0,0.0,0.0,79,0.00,,,0.00,WeatherCatV1.00B22,2013-01-24 05:26:00,
2013-01-24 00:31:00,-2.0,-6.9,30.17,North,0,0.0,0.0,79,0.00,,,0.00,WeatherCatV1.00B22,2013-01-24 05:31:00,
2013-01-24 00:36:00,-2.1,-7.0,30.17,North,0,0.0,0.0,79,0.00,,,0.00,WeatherCatV1.00B22,2013-01-24 05:36:00,
2013-01-24 00:41:00,-2.2,-6.8,30.17,North,0,0.0,0.0,80,0.00,,,0.00,WeatherCatV1.00B22,2013-01-24 05:41:00,
2013-01-24 00:46:00,-2.3,-6.9,30.17,North,0,0.0,0.0,80,0.00,,,0.00,WeatherCatV1.00B22,2013-01-24 05:46:00,
2013-01-24 00:51:00,-2.3,-6.9,30.18,North,0,0.0,0.0,80,0.00,,,0.00,WeatherCatV1.00B22,2013-01-24 05:51:00,
2013-01-24 00:56:00,-2.5,-7.1,30.17,North,0,0.0,0.0,80,0.00,,,0.00,WeatherCatV1.00B22,2013-01-24 05:56:00,
2013-01-24 01:01:00,-2.7,-7.1,30.17,North,0,0.0,0.0,81,0.00,,,0.00,WeatherCatV1.00B22,2013-01-24 06:01:00,
2013-01-24 01:06:00,-2.8,-7.2,30.17,North,0,0.0,0.0,81,0.00,,,0.00,WeatherCatV1.00B22,2013-01-24 06:06:00,
2013-01-24 01:11:00,-3.0,-7.4,30.17,North,0,0.0,0.0,81,0.00,,,0.00,WeatherCatV1.00B22,2013-01-24 06:11:00,
2013-01-24 01:16:00,-3.1,-7.2,30.17,North,0,0.0,0.0,82,0.00,,,0.00,WeatherCatV1.00B22,2013-01-24 06:16:00,
2013-01-24 01:21:00,-3.1,-7.2,30.17,North,0,0.0,0.0,82,0.00,,,0.00,WeatherCatV1.00B22,2013-01-24 06:21:00,
2013-01-24 01:26:00,-3.2,-7.5,30.18,North,0,0.0,0.0,81,0.00,,,0.00,WeatherCatV1.00B22,2013-01-24 06:26:00,
2013-01-24 01:31:00,-3.4,-7.5,30.18,North,0,1.0,1.0,82,0.00,,,0.00,WeatherCatV1.00B22,2013-01-24 06:31:00,
2013-01-24 01:36:00,-3.4,-7.2,30.18,North,0,0.0,2.0,83,0.00,,,0.00,WeatherCatV1.00B22,2013-01-24 06:36:00,
2013-01-24 01:41:00,-3.4,-7.2,30.18,North,0,0.0,1.0,83,0.00,,,0.00,WeatherCatV1.00B22,2013-01-24 06:41:00,
2013-01-24 01:46:00,-3.2,-7.0,30.18,North,0,1.0,2.0,83,0.00,,,0.00,WeatherCatV1.00B22,2013-01-24 06:46:00,
2013-01-24 01:51:00,-3.0,-6.9,30.19,North,0,0.0,0.0,83,0.00,,,0.00,WeatherCatV1.00B22,2013-01-24 06:51:00,
2013-01-24 01:56:00,-2.9,-6.8,30.19,North,0,0.0,1.0,83,0.00,,,0.00,WeatherCatV1.00B22,2013-01-24 06:56:00,
2013-01-24 02:01:00,-2.8,-6.9,30.19,North,0,0.0,0.0,82,0.00,,,0.00,WeatherCatV1.00B22,2013-01-24 07:01:00,
2013-01-24 02:06:00,-2.7,-6.8,30.19,North,0,0.0,1.0,82,0.00,,,0.00,WeatherCatV1.00B22,2013-01-24 07:06:00,
2013-01-24 02:11:00,-2.7,-6.8,30.19,North,0,0.0,0.0,82,0.00,,,0.00,WeatherCatV1.00B22,2013-01-24 07:11:00,
2013-01-24 02:13:00,-2.7,-6.8,30.18,North,0,0.0,0.0,82,0.00,,,0.00,WeatherCatV1.00B22,2013-01-24 07:13:00,
2013-01-24 02:18:00,-2.7,-6.8,30.18,North,0,0.0,0.0,82,0.00,,,0.00,WeatherCatV1.00B22,2013-01-24 07:18:00,
2013-01-24 02:23:00,-2.8,-6.9,30.18,North,0,0.0,0.0,82,0.00,,,0.00,WeatherCatV1.00B22,2013-01-24 07:23:00,
2013-01-24 02:28:00,-3.0,-7.1,30.18,North,0,0.0,0.0,82,0.00,,,0.00,WeatherCatV1.00B22,2013-01-24 07:28:00,
2013-01-24 02:33:00,-3.0,-7.1,30.18,North,0,0.0,0.0,82,0.00,,,0.00,WeatherCatV1.00B22,2013-01-24 07:33:00,
2013-01-24 02:38:00,-3.1,-7.2,30.18,North,0,0.0,0.0,82,0.00,,,0.00,WeatherCatV1.00B22,2013-01-24 07:38:00,
2013-01-24 02:43:00,-3.1,-7.0,30.18,North,0,0.0,0.0,83,0.00,,,0.00,WeatherCatV1.00B22,2013-01-24 07:43:00,
2013-01-24 02:48:00,-3.0,-6.9,30.18,North,0,0.0,0.0,83,0.00,,,0.00,WeatherCatV1.00B22,2013-01-24 07:48:00,
2013-01-24 02:53:00,-3.0,-6.9,30.18,North,0,0.0,0.0,83,0.00,,,0.00,WeatherCatV1.00B22,2013-01-24 07:53:00,
2013-01-24 02:58:00,-3.1,-7.0,30.18,North,0,0.0,0.0,83,0.00,,,0.00,WeatherCatV1.00B22,2013-01-24 07:58:00,
2013-01-24 03:03:00,-3.2,-7.0,30.18,North,0,0.0,0.0,83,0.00,,,0.00,WeatherCatV1.00B22,2013-01-24 08:03:00,
2013-01-24 03:08:00,-3.2,-7.0,30.18,North,0,0.0,0.0,83,0.00,,,0.00,WeatherCatV1.00B22,2013-01-24 08:08:00,
2013-01-24 03:13:00,-3.2,-7.0,30.17,North,0,0.0,0.0,83,0.00,,,0.00,WeatherCatV1.00B22,2013-01-24 08:13:00,
2013-01-24 03:18:00,-3.2,-7.0,30.18,North,0,0.0,0.0,83,0.00,,,0.00,WeatherCatV1.00B22,2013-01-24 08:18:00,
2013-01-24 03:23:00,-3.3,-7.1,30.17,North,0,0.0,0.0,83,0.00,,,0.00,WeatherCatV1.00B22,2013-01-24 08:23:00,
2013-01-24 03:28:00,-3.4,-7.5,30.18,North,0,0.0,0.0,82,0.00,,,0.00,WeatherCatV1.00B22,2013-01-24 08:28:00,
2013-01-24 03:33:00,-3.6,-7.7,30.18,North,0,0.0,0.0,82,0.00,,,0.00,WeatherCatV1.00B22,2013-01-24 08:33:00,
2013-01-24 03:38:00,-3.7,-7.8,30.18,North,0,0.0,0.0,82,0.00,,,0.00,WeatherCatV1.00B22,2013-01-24 08:38:00,
2013-01-24 03:43:00,-3.7,-7.5,30.17,North,0,0.0,0.0,83,0.00,,,0.00,WeatherCatV1.00B22,2013-01-24 08:43:00,
2013-01-24 03:48:00,-3.6,-7.4,30.18,North,0,0.0,1.0,83,0.00,,,0.00,WeatherCatV1.00B22,2013-01-24 08:48:00,
2013-01-24 03:53:00,-3.6,-7.4,30.18,North,0,0.0,0.0,83,0.00,,,0.00,WeatherCatV1.00B22,2013-01-24 08:53:00,
2013-01-24 03:58:00,-3.5,-7.3,30.18,North,0,0.0,0.0,83,0.00,,,0.00,WeatherCatV1.00B22,2013-01-24 08:58:00,
2013-01-24 04:03:00,-3.5,-7.6,30.18,North,0,0.0,0.0,82,0.00,,,0.00,WeatherCatV1.00B22,2013-01-24 09:03:00,
2013-01-24 04:08:00,-3.5,-7.6,30.17,North,0,0.0,0.0,82,0.00,,,0.00,WeatherCatV1.00B22,2013-01-24 09:08:00,
2013-01-24 04:13:00,-3.6,-7.7,30.17,North,0,0.0,0.0,82,0.00,,,0.00,WeatherCatV1.00B22,2013-01-24 09:13:00,
2013-01-24 04:18:00,-3.7,-7.8,30.17,North,0,0.0,0.0,82,0.00,,,0.00,WeatherCatV1.00B22,2013-01-24 09:18:00,
2013-01-24 04:23:00,-3.8,-7.9,30.18,North,0,0.0,0.0,82,0.00,,,0.00,WeatherCatV1.00B22,2013-01-24 09:23:00,
2013-01-24 04:28:00,-3.8,-8.1,30.18,North,0,0.0,0.0,81,0.00,,,0.00,WeatherCatV1.00B22,2013-01-24 09:28:00,
2013-01-24 04:33:00,-3.9,-8.2,30.18,North,0,0.0,0.0,81,0.00,,,0.00,WeatherCatV1.00B22,2013-01-24 09:33:00,
2013-01-24 04:38:00,-3.9,-8.0,30.18,North,0,0.0,0.0,82,0.00,,,0.00,WeatherCatV1.00B22,2013-01-24 09:38:00,
2013-01-24 04:43:00,-3.9,-8.0,30.18,North,0,0.0,0.0,82,0.00,,,0.00,WeatherCatV1.00B22,2013-01-24 09:43:00,
2013-01-24 04:48:00,-3.9,-8.2,30.18,North,0,0.0,0.0,81,0.00,,,0.00,WeatherCatV1.00B22,2013-01-24 09:48:00,
2013-01-24 04:53:00,-4.0,-8.3,30.18,North,0,0.0,0.0,81,0.00,,,0.00,WeatherCatV1.00B22,2013-01-24 09:53:00,
2013-01-24 04:58:00,-4.1,-8.4,30.18,North,0,0.0,0.0,81,0.00,,,0.00,WeatherCatV1.00B22,2013-01-24 09:58:00,
2013-01-24 05:03:00,-4.2,-8.5,30.18,North,0,0.0,0.0,81,0.00,,,0.00,WeatherCatV1.00B22,2013-01-24 10:03:00,
2013-01-24 05:08:00,-4.3,-8.6,30.19,North,0,0.0,0.0,81,0.00,,,0.00,WeatherCatV1.00B22,2013-01-24 10:08:00,
2013-01-24 05:13:00,-4.3,-8.4,30.18,North,0,0.0,0.0,82,0.00,,,0.00,WeatherCatV1.00B22,2013-01-24 10:13:00,
2013-01-24 05:18:00,-4.3,-8.4,30.18,North,0,0.0,0.0,82,0.00,,,0.00,WeatherCatV1.00B22,2013-01-24 10:18:00,
2013-01-24 05:23:00,-4.3,-8.4,30.18,North,0,0.0,0.0,82,0.00,,,0.00,WeatherCatV1.00B22,2013-01-24 10:23:00,
2013-01-24 05:28:00,-4.3,-8.4,30.19,North,0,0.0,0.0,82,0.00,,,0.00,WeatherCatV1.00B22,2013-01-24 10:28:00,
2013-01-24 05:33:00,-4.3,-8.4,30.19,North,0,0.0,0.0,82,0.00,,,0.00,WeatherCatV1.00B22,2013-01-24 10:33:00,
2013-01-24 05:38:00,-4.4,-8.5,30.19,North,0,0.0,0.0,82,0.00,,,0.00,WeatherCatV1.00B22,2013-01-24 10:38:00,
2013-01-24 05:43:00,-4.5,-8.6,30.19,North,0,0.0,0.0,82,0.00,,,0.00,WeatherCatV1.00B22,2013-01-24 10:43:00,
2013-01-24 05:48:00,-4.7,-8.8,30.19,North,0,1.0,1.0,82,0.00,,,0.00,WeatherCatV1.00B22,2013-01-24 10:48:00,
2013-01-24 05:53:00,-4.9,-9.0,30.20,North,0,0.0,1.0,82,0.00,,,0.00,WeatherCatV1.00B22,2013-01-24 10:53:00,
2013-01-24 05:58:00,-5.0,-9.1,30.20,North,0,1.0,1.0,82,0.00,,,0.00,WeatherCatV1.00B22,2013-01-24 10:58:00,
2013-01-24 06:03:00,-5.2,-9.3,30.20,North,0,0.0,0.0,82,0.00,,,0.00,WeatherCatV1.00B22,2013-01-24 11:03:00,
2013-01-24 06:08:00,-5.4,-9.5,30.20,North,0,0.0,0.0,82,0.00,,,0.00,WeatherCatV1.00B22,2013-01-24 11:08:00,
2013-01-24 06:13:00,-5.6,-9.6,30.20,North,0,1.0,1.0,82,0.00,,,0.00,WeatherCatV1.00B22,2013-01-24 11:13:00,
2013-01-24 06:18:00,-5.8,-9.8,30.21,North,0,0.0,0.0,82,0.00,,,0.00,WeatherCatV1.00B22,2013-01-24 11:18:00,
2013-01-24 06:23:00,-5.9,-9.7,30.21,North,0,0.0,1.0,83,0.00,,,0.00,WeatherCatV1.00B22,2013-01-24 11:23:00,
2013-01-24 06:28:00,-5.8,-9.6,30.21,North,0,1.0,2.0,83,0.00,,,0.00,WeatherCatV1.00B22,2013-01-24 11:28:00,
2013-01-24 06:33:00,-5.7,-9.3,30.21,North,0,0.0,0.0,84,0.00,,,0.00,WeatherCatV1.00B22,2013-01-24 11:33:00,
2013-01-24 06:38:00,-5.7,-9.5,30.21,North,0,0.0,0.0,83,0.00,,,0.00,WeatherCatV1.00B22,2013-01-24 11:38:00,
2013-01-24 06:43:00,-5.7,-9.5,30.21,North,0,1.0,1.0,83,0.00,,,0.00,WeatherCatV1.00B22,2013-01-24 11:43:00,
2013-01-24 06:48:00,-5.5,-9.3,30.22,North,0,0.0,0.0,83,0.00,,,0.00,WeatherCatV1.00B22,2013-01-24 11:48:00,
2013-01-24 06:53:00,-5.4,-9.2,30.22,North,0,0.0,0.0,83,0.00,,,0.00,WeatherCatV1.00B22,2013-01-24 11:53:00,
2013-01-24 06:58:00,-5.4,-9.2,30.22,North,0,0.0,0.0,83,0.00,,,0.00,WeatherCatV1.00B22,2013-01-24 11:58:00,
2013-01-24 07:03:00,-5.5,-9.3,30.22,North,0,0.0,0.0,83,0.00,,,0.00,WeatherCatV1.00B22,2013-01-24 12:03:00,
2013-01-24 07:08:00,-5.7,-9.7,30.22,North,0,0.0,0.0,82,0.00,,,0.00,WeatherCatV1.00B22,2013-01-24 12:08:00,
2013-01-24 07:13:00,-5.8,-9.6,30.23,North,0,0.0,0.0,83,0.00,,,0.00,WeatherCatV1.00B22,2013-01-24 12:13:00,
2013-01-24 07:18:00,-5.9,-9.9,30.23,North,0,0.0,0.0,82,0.00,,,0.00,WeatherCatV1.00B22,2013-01-24 12:18:00,
2013-01-24 07:23:00,-6.1,-9.9,30.23,North,0,0.0,0.0,83,0.00,,,0.00,WeatherCatV1.00B22,2013-01-24 12:23:00,
2013-01-24 07:28:00,-6.1,-9.9,30.23,North,0,0.0,0.0,83,0.00,,,0.00,WeatherCatV1.00B22,2013-01-24 12:28:00,
2013-01-24 07:33:00,-6.2,-10.0,30.23,North,0,0.0,0.0,83,0.00,,,0.00,WeatherCatV1.00B22,2013-01-24 12:33:00,
2013-01-24 07:38:00,-6.1,-9.9,30.23,North,0,0.0,1.0,83,0.00,,,0.00,WeatherCatV1.00B22,2013-01-24 12:38:00,
2013-01-24 07:43:00,-6.0,-9.8,30.23,North,0,0.0,1.0,83,0.00,,,0.00,WeatherCatV1.00B22,2013-01-24 12:43:00,
2013-01-24 07:48:00,-5.7,-9.3,30.24,North,0,0.0,1.0,84,0.00,,,0.00,WeatherCatV1.00B22,2013-01-24 12:48:00,
2013-01-24 07:53:00,-5.5,-9.1,30.24,North,0,0.0,0.0,84,0.00,,,0.00,WeatherCatV1.00B22,2013-01-24 12:53:00,
2013-01-24 07:58:00,-5.1,-8.7,30.24,North,0,0.0,1.0,84,0.00,,,0.00,WeatherCatV1.00B22,2013-01-24 12:58:00,
2013-01-24 08:03:00,-4.9,-8.7,30.24,North,0,1.0,2.0,83,0.00,,,0.00,WeatherCatV1.00B22,2013-01-24 13:03:00,
2013-01-24 08:08:00,-4.8,-8.6,30.24,North,0,0.0,1.0,83,0.00,,,0.00,WeatherCatV1.00B22,2013-01-24 13:08:00,
2013-01-24 08:13:00,-4.3,-7.9,30.25,North,0,1.0,1.0,84,0.00,,,0.00,WeatherCatV1.00B22,2013-01-24 13:13:00,
2013-01-24 08:18:00,-3.9,-7.5,30.25,North,5,0.0,1.0,84,0.00,,,0.00,WeatherCatV1.00B22,2013-01-24 13:18:00,
2013-01-24 08:23:00,-3.5,-7.3,30.25,North,5,2.0,3.0,83,0.00,,,0.00,WeatherCatV1.00B22,2013-01-24 13:23:00,
2013-01-24 08:28:00,-3.2,-7.0,30.25,NE,38,3.0,3.0,83,0.00,,,0.00,WeatherCatV1.00B22,2013-01-24 13:28:00,
2013-01-24 08:33:00,-3.1,-7.2,30.25,ENE,65,3.0,3.0,82,0.00,,,0.00,WeatherCatV1.00B22,2013-01-24 13:33:00,
2013-01-24 08:38:00,-2.9,-7.0,30.25,ENE,65,1.0,2.0,82,0.00,,,0.00,WeatherCatV1.00B22,2013-01-24 13:38:00,
2013-01-24 08:43:00,-2.7,-7.1,30.26,ENE,68,0.0,0.0,81,0.00,,,0.00,WeatherCatV1.00B22,2013-01-24 13:43:00,
2013-01-24 08:48:00,-2.3,-6.4,30.26,ENE,68,0.0,0.0,82,0.00,,,0.00,WeatherCatV1.00B22,2013-01-24 13:48:00,
2013-01-24 08:53:00,-1.9,-6.0,30.26,ENE,68,2.0,2.0,82,0.00,,,0.00,WeatherCatV1.00B22,2013-01-24 13:53:00,
2013-01-24 08:58:00,-1.6,-6.0,30.26,ENE,73,2.0,4.0,81,0.00,,,0.00,WeatherCatV1.00B22,2013-01-24 13:58:00,
2013-01-24 09:03:00,-1.1,-5.2,30.26,ENE,73,1.0,1.0,82,0.00,,,0.00,WeatherCatV1.00B22,2013-01-24 14:03:00,
2013-01-24 09:08:00,-0.4,-4.8,30.26,ENE,73,0.0,2.0,81,0.00,,,0.00,WeatherCatV1.00B22,2013-01-24 14:08:00,
2013-01-24 09:13:00,0.0,-4.7,30.26,ENE,73,2.0,2.0,80,0.00,,,0.00,WeatherCatV1.00B22,2013-01-24 14:13:00,
2013-01-24 09:18:00,0.4,-4.5,30.26,ENE,76,3.0,4.0,79,0.00,,,0.00,WeatherCatV1.00B22,2013-01-24 14:18:00,
2013-01-24 09:23:00,0.8,-4.2,30.26,ENE,71,2.0,3.0,79,0.00,,,0.00,WeatherCatV1.00B22,2013-01-24 14:23:00,
2013-01-24 09:28:00,1.2,-4.0,30.26,NE,47,2.0,4.0,78,0.00,,,0.00,WeatherCatV1.00B22,2013-01-24 14:28:00,
2013-01-24 09:33:00,1.7,-4.1,30.27,NNW,333,3.0,3.0,76,0.00,,,0.00,WeatherCatV1.00B22,2013-01-24 14:33:00,
2013-01-24 09:38:00,2.2,-3.9,30.27,NE,43,1.0,4.0,75,0.00,,,0.00,WeatherCatV1.00B22,2013-01-24 14:38:00,
2013-01-24 09:43:00,2.4,-4.2,30.27,NW,317,0.0,2.0,73,0.00,,,0.00,WeatherCatV1.00B22,2013-01-24 14:43:00,
2013-01-24 09:48:00,2.6,-4.3,30.27,NNW,338,4.0,5.0,72,0.00,,,0.00,WeatherCatV1.00B22,2013-01-24 14:48:00,
2013-01-24 09:53:00,2.6,-4.3,30.27,NNW,331,0.0,3.0,72,0.00,,,0.00,WeatherCatV1.00B22,2013-01-24 14:53:00,
2013-01-24 09:58:00,2.8,-4.1,30.26,NNW,345,1.0,2.0,72,0.00,,,0.00,WeatherCatV1.00B22,2013-01-24 14:58:00,
2013-01-24 10:03:00,3.2,-4.0,30.26,NE,50,1.0,4.0,71,0.00,,,0.00,WeatherCatV1.00B22,2013-01-24 15:03:00,
2013-01-24 10:08:00,3.7,-3.3,30.26,NE,49,1.0,3.0,72,0.00,,,0.00,WeatherCatV1.00B22,2013-01-24 15:08:00,
2013-01-24 10:13:00,4.0,-3.9,30.26,North,355,2.0,5.0,69,0.00,,,0.00,WeatherCatV1.00B22,2013-01-24 15:13:00,
2013-01-24 10:18:00,4.2,-4.0,30.26,NE,45,1.0,2.0,68,0.00,,,0.00,WeatherCatV1.00B22,2013-01-24 15:18:00,
2013-01-24 10:23:00,4.4,-3.8,30.26,WNW,292,1.0,3.0,68,0.00,,,0.00,WeatherCatV1.00B22,2013-01-24 15:23:00,
2013-01-24 10:28:00,4.6,-3.6,30.26,WNW,284,2.0,2.0,68,0.00,,,0.00,WeatherCatV1.00B22,2013-01-24 15:28:00,
2013-01-24 10:33:00,5.2,-3.0,30.26,North,355,0.0,2.0,68,0.00,,,0.00,WeatherCatV1.00B22,2013-01-24 15:33:00,
2013-01-24 10:38:00,5.8,-3.1,30.25,NW,326,0.0,3.0,66,0.00,,,0.00,WeatherCatV1.00B22,2013-01-24 15:38:00,
2013-01-24 10:43:00,6.2,-2.4,30.26,NNE,25,2.0,6.0,67,0.00,,,0.00,WeatherCatV1.00B22,2013-01-24 15:43:00,
2013-01-24 10:48:00,6.4,-2.5,30.25,SW,221,3.0,3.0,66,0.00,,,0.00,WeatherCatV1.00B22,2013-01-24 15:48:00,
2013-01-24 10:53:00,6.7,-2.2,30.25,WNW,295,3.0,3.0,66,0.00,,,0.00,WeatherCatV1.00B22,2013-01-24 15:53:00,
2013-01-24 10:58:00,7.0,-2.6,30.25,NNW,340,2.0,3.0,64,0.00,,,0.00,WeatherCatV1.00B22,2013-01-24 15:58:00,
2013-01-24 11:03:00,7.2,-2.7,30.25,WNW,294,2.0,3.0,63,0.00,,,0.00,WeatherCatV1.00B22,2013-01-24 16:03:00,
2013-01-24 11:08:00,7.7,-2.2,30.25,NNE,32,3.0,4.0,63,0.00,,,0.00,WeatherCatV1.00B22,2013-01-24 16:08:00,
2013-01-24 11:13:00,7.8,-3.2,30.25,NW,320,2.0,7.0,60,0.00,,,0.00,WeatherCatV1.00B22,2013-01-24 16:13:00,
2013-01-24 11:18:00,7.8,-3.2,30.24,NW,320,2.0,2.0,60,0.00,,,0.00,WeatherCatV1.00B22,2013-01-24 16:18:00,
2013-01-24 11:23:00,7.8,-2.8,30.24,WSW,249,3.0,3.0,61,0.00,,,0.00,WeatherCatV1.00B22,2013-01-24 16:23:00,
2013-01-24 11:28:00,8.3,-2.3,30.24,NNW,346,2.0,4.0,61,0.00,,,0.00,WeatherCatV1.00B22,2013-01-24 16:28:00,
2013-01-24 11:33:00,8.1,-3.2,30.24,North,5,2.0,4.0,59,0.00,,,0.00,WeatherCatV1.00B22,2013-01-24 16:33:00,
2013-01-24 11:38:00,8.5,-2.5,30.24,NW,311,0.0,3.0,60,0.00,,,0.00,WeatherCatV1.00B22,2013-01-24 16:38:00,
2013-01-24 11:43:00,8.9,-2.1,30.24,North,5,1.0,5.0,60,0.00,,,0.00,WeatherCatV1.00B22,2013-01-24 16:43:00,
2013-01-24 11:48:00,9.4,-1.6,30.24,WNW,299,2.0,7.0,60,0.00,,,0.00,WeatherCatV1.00B22,2013-01-24 16:48:00,
2013-01-24 11:53:00,9.3,-2.8,30.24,NNE,27,5.0,5.0,57,0.00,,,0.00,WeatherCatV1.00B22,2013-01-24 16:53:00,
2013-01-24 11:58:00,9.5,-1.9,30.24,North,10,4.0,4.0,59,0.00,,,0.00,WeatherCatV1.00B22,2013-01-24 16:58:00,
2013-01-24 12:03:00,9.7,-1.4,30.24,NNW,347,1.0,4.0,60,0.00,,,0.00,WeatherCatV1.00B22,2013-01-24 17:03:00,
2013-01-24 12:08:00,9.8,-2.3,30.23,WNW,285,1.0,7.0,57,0.00,,,0.00,WeatherCatV1.00B22,2013-01-24 17:08:00,
2013-01-24 12:13:00,9.7,-2.4,30.23,West,269,1.0,5.0,57,0.00,,,0.00,WeatherCatV1.00B22,2013-01-24 17:13:00,
2013-01-24 12:18:00,9.8,-2.7,30.22,NNE,24,4.0,5.0,56,0.00,,,0.00,WeatherCatV1.00B22,2013-01-24 17:18:00,
2013-01-24 12:23:00,9.9,-3.0,30.23,NW,321,4.0,11.0,55,0.00,,,0.00,WeatherCatV1.00B22,2013-01-24 17:23:00,
2013-01-24 12:28:00,10.2,-3.5,30.23,NW,312,4.0,8.0,53,0.00,,,0.00,WeatherCatV1.00B22,2013-01-24 17:28:00,
2013-01-24 12:33:00,10.3,-3.8,30.22,North,349,1.0,8.0,52,0.00,,,0.00,WeatherCatV1.00B22,2013-01-24 17:33:00,
2013-01-24 12:38:00,10.7,-2.6,30.22,NNE,26,2.0,5.0,54,0.00,,,0.00,WeatherCatV1.00B22,2013-01-24 17:38:00,
2013-01-24 12:43:00,11.0,-2.7,30.22,NNW,339,2.0,6.0,53,0.00,,,0.00,WeatherCatV1.00B22,2013-01-24 17:43:00,
2013-01-24 12:48:00,11.2,-3.0,30.22,WNW,282,4.0,7.0,52,0.00,,,0.00,WeatherCatV1.00B22,2013-01-24 17:48:00,
2013-01-24 12:53:00,11.2,-3.4,30.22,North,355,4.0,4.0,51,0.00,,,0.00,WeatherCatV1.00B22,2013-01-24 17:53:00,
2013-01-24 12:58:00,10.9,-3.2,30.22,West,275,2.0,6.0,52,0.00,,,0.00,WeatherCatV1.00B22,2013-01-24 17:58:00,
2013-01-24 13:03:00,10.8,-2.9,30.22,North,0,8.0,8.0,53,0.00,,,0.00,WeatherCatV1.00B22,2013-01-24 18:03:00,
2013-01-24 13:08:00,10.9,-2.8,30.22,West,263,2.0,6.0,53,0.00,,,0.00,WeatherCatV1.00B22,2013-01-24 18:08:00,
2013-01-24 13:13:00,11.0,-3.1,30.22,WSW,247,9.0,9.0,52,0.00,,,0.00,WeatherCatV1.00B22,2013-01-24 18:13:00,
2013-01-24 13:18:00,11.1,-2.6,30.21,WNW,288,2.0,5.0,53,0.00,,,0.00,WeatherCatV1.00B22,2013-01-24 18:18:00,
2013-01-24 13:23:00,11.2,-3.0,30.21,NNW,346,1.0,4.0,52,0.00,,,0.00,WeatherCatV1.00B22,2013-01-24 18:23:00,
2013-01-24 13:28:00,11.4,-3.2,30.21,WSW,242,2.0,6.0,51,0.00,,,0.00,WeatherCatV1.00B22,2013-01-24 18:28:00,
2013-01-24 13:33:00,11.6,-3.0,30.21,North,0,2.0,5.0,51,0.00,,,0.00,WeatherCatV1.00B22,2013-01-24 18:33:00,
2013-01-24 13:38:00,11.9,-1.9,30.21,NE,37,1.0,3.0,53,0.00,,,0.00,WeatherCatV1.00B22,2013-01-24 18:38:00,
2013-01-24 13:43:00,12.0,-1.8,30.20,SSW,205,2.0,5.0,53,0.00,,,0.00,WeatherCatV1.00B22,2013-01-24 18:43:00,
2013-01-24 13:48:00,12.0,-2.2,30.20,NNW,345,3.0,4.0,52,0.00,,,0.00,WeatherCatV1.00B22,2013-01-24 18:48:00,
2013-01-24 13:53:00,12.2,-2.0,30.20,West,262,3.0,5.0,52,0.00,,,0.00,WeatherCatV1.00B22,2013-01-24 18:53:00,
2013-01-24 13:58:00,12.5,-1.7,30.20,NNE,28,1.0,3.0,52,0.00,,,0.00,WeatherCatV1.00B22,2013-01-24 18:58:00,
2013-01-24 14:03:00,12.8,-1.9,30.20,WSW,239,1.0,4.0,51,0.00,,,0.00,WeatherCatV1.00B22,2013-01-24 19:03:00,
2013-01-24 14:08:00,12.8,-1.9,30.20,North,11,4.0,5.0,51,0.00,,,0.00,WeatherCatV1.00B22,2013-01-24 19:08:00,
2013-01-24 14:13:00,12.8,-2.7,30.20,WSW,256,2.0,6.0,49,0.00,,,0.00,WeatherCatV1.00B22,2013-01-24 19:13:00,
2013-01-24 14:18:00,12.9,-2.2,30.20,NNW,342,5.0,8.0,50,0.00,,,0.00,WeatherCatV1.00B22,2013-01-24 19:18:00,
2013-01-24 14:23:00,13.0,-2.1,30.20,WNW,299,0.0,4.0,50,0.00,,,0.00,WeatherCatV1.00B22,2013-01-24 19:23:00,
2013-01-24 14:28:00,12.9,-2.6,30.20,North,355,1.0,5.0,49,0.00,,,0.00,WeatherCatV1.00B22,2013-01-24 19:28:00,
2013-01-24 14:33:00,13.0,-2.1,30.19,NW,320,0.0,2.0,50,0.00,,,0.00,WeatherCatV1.00B22,2013-01-24 19:33:00,
2013-01-24 14:38:00,13.2,-1.9,30.20,NNE,25,1.0,3.0,50,0.00,,,0.00,WeatherCatV1.00B22,2013-01-24 19:38:00,
2013-01-24 14:43:00,13.4,-1.7,30.20,NNE,24,1.0,4.0,50,0.00,,,0.00,WeatherCatV1.00B22,2013-01-24 19:43:00,
2013-01-24 14:48:00,13.6,-1.5,30.20,NNW,345,3.0,4.0,50,0.00,,,0.00,WeatherCatV1.00B22,2013-01-24 19:48:00,
2013-01-24 14:53:00,13.7,-1.0,30.20,North,355,5.0,12.0,51,0.00,,,0.00,WeatherCatV1.00B22,2013-01-24 19:53:00,
2013-01-24 14:58:00,14.1,-1.5,30.20,NNW,344,4.0,7.0,49,0.00,,,0.00,WeatherCatV1.00B22,2013-01-24 19:58:00,
2013-01-24 15:03:00,14.4,-0.8,30.20,East,96,1.0,6.0,50,0.00,,,0.00,WeatherCatV1.00B22,2013-01-24 20:03:00,
2013-01-24 15:08:00,14.6,-1.0,30.20,WNW,298,3.0,5.0,49,0.00,,,0.00,WeatherCatV1.00B22,2013-01-24 20:08:00,
2013-01-24 15:13:00,14.6,-1.9,30.20,NW,317,3.0,6.0,47,0.00,,,0.00,WeatherCatV1.00B22,2013-01-24 20:13:00,
2013-01-24 15:18:00,14.5,-1.1,30.20,NE,34,0.0,6.0,49,0.00,,,0.00,WeatherCatV1.00B22,2013-01-24 20:18:00,
2013-01-24 15:23:00,14.5,-2.0,30.20,SW,232,6.0,7.0,47,0.00,,,0.00,WeatherCatV1.00B22,2013-01-24 20:23:00,
2013-01-24 15:28:00,14.2,-1.8,30.20,NNE,28,2.0,10.0,48,0.00,,,0.00,WeatherCatV1.00B22,2013-01-24 20:28:00,
2013-01-24 15:33:00,14.1,-1.9,30.20,ENE,69,2.0,2.0,48,0.00,,,0.00,WeatherCatV1.00B22,2013-01-24 20:33:00,
2013-01-24 15:38:00,13.5,-2.5,30.21,NNE,24,4.0,6.0,48,0.00,,,0.00,WeatherCatV1.00B22,2013-01-24 20:38:00,
2013-01-24 15:43:00,13.2,-2.3,30.21,SW,226,3.0,5.0,49,0.00,,,0.00,WeatherCatV1.00B22,2013-01-24 20:43:00,
2013-01-24 15:48:00,12.9,-3.0,30.22,East,94,0.0,2.0,48,0.00,,,0.00,WeatherCatV1.00B22,2013-01-24 20:48:00,
2013-01-24 15:53:00,12.7,-3.2,30.22,WNW,301,2.0,5.0,48,0.00,,,0.00,WeatherCatV1.00B22,2013-01-24 20:53:00,
2013-01-24 15:58:00,12.6,-3.3,30.22,East,86,2.0,2.0,48,0.00,,,0.00,WeatherCatV1.00B22,2013-01-24 20:58:00,
2013-01-24 16:03:00,12.4,-4.4,30.22,West,267,0.0,4.0,46,0.00,,,0.00,WeatherCatV1.00B22,2013-01-24 21:03:00,
2013-01-24 16:08:00,12.3,-4.5,30.22,North,0,4.0,9.0,46,0.00,,,0.00,WeatherCatV1.00B22,2013-01-24 21:08:00,
2013-01-24 16:13:00,12.1,-4.2,30.22,North,355,2.0,4.0,47,0.00,,,0.00,WeatherCatV1.00B22,2013-01-24 21:13:00,
2013-01-24 16:18:00,11.9,-4.9,30.23,North,355,2.0,8.0,46,0.00,,,0.00,WeatherCatV1.00B22,2013-01-24 21:18:00,
2013-01-24 16:23:00,11.7,-4.6,30.23,NE,51,3.0,12.0,47,0.00,,,0.00,WeatherCatV1.00B22,2013-01-24 21:23:00,
2013-01-24 16:28:00,11.3,-5.0,30.23,NNW,336,1.0,6.0,47,0.00,,,0.00,WeatherCatV1.00B22,2013-01-24 21:28:00,
2013-01-24 16:33:00,11.0,-5.2,30.23,SE,132,5.0,7.0,47,0.00,,,0.00,WeatherCatV1.00B22,2013-01-24 21:33:00,
2013-01-24 16:38:00,10.9,-4.9,30.23,NW,306,6.0,9.0,48,0.00,,,0.00,WeatherCatV1.00B22,2013-01-24 21:38:00,
2013-01-24 16:43:00,10.7,-4.7,30.24,West,271,4.0,6.0,49,0.00,,,0.00,WeatherCatV1.00B22,2013-01-24 21:43:00,
2013-01-24 16:48:00,10.5,-4.4,30.24,NE,34,4.0,5.0,50,0.00,,,0.00,WeatherCatV1.00B22,2013-01-24 21:48:00,
2013-01-24 16:53:00,10.5,-4.4,30.24,NNW,334,3.0,7.0,50,0.00,,,0.00,WeatherCatV1.00B22,2013-01-24 21:53:00,
2013-01-24 16:58:00,10.3,-4.2,30.24,NNE,19,3.0,14.0,51,0.00,,,0.00,WeatherCatV1.00B22,2013-01-24 21:58:00,
2013-01-24 17:03:00,10.2,-3.9,30.24,NNW,340,2.0,9.0,52,0.00,,,0.00,WeatherCatV1.00B22,2013-01-24 22:03:00,
2013-01-24 17:08:00,10.1,-3.6,30.24,NW,313,4.0,7.0,53,0.00,,,0.00,WeatherCatV1.00B22,2013-01-24 22:08:00,
2013-01-24 17:13:00,10.0,-3.7,30.25,NNW,331,4.0,6.0,53,0.00,,,0.00,WeatherCatV1.00B22,2013-01-24 22:13:00,
2013-01-24 17:18:00,9.8,-3.5,30.25,NNE,14,3.0,6.0,54,0.00,,,0.00,WeatherCatV1.00B22,2013-01-24 22:18:00,
2013-01-24 17:23:00,9.8,-3.1,30.26,WSW,239,2.0,5.0,55,0.00,,,0.00,WeatherCatV1.00B22,2013-01-24 22:23:00,
2013-01-24 17:28:00,9.7,-3.2,30.26,ENE,69,2.0,2.0,55,0.00,,,0.00,WeatherCatV1.00B22,2013-01-24 22:28:00,
2013-01-24 17:33:00,9.5,-2.6,30.26,NNW,329,1.0,4.0,57,0.00,,,0.00,WeatherCatV1.00B22,2013-01-24 22:33:00,
2013-01-24 17:38:00,9.4,-2.7,30.26,NNE,31,1.0,3.0,57,0.00,,,0.00,WeatherCatV1.00B22,2013-01-24 22:38:00,
2013-01-24 17:43:00,9.2,-2.5,30.27,NNE,26,3.0,7.0,58,0.00,,,0.00,WeatherCatV1.00B22,2013-01-24 22:43:00,
2013-01-24 17:48:00,9.1,-3.0,30.27,North,0,2.0,3.0,57,0.00,,,0.00,WeatherCatV1.00B22,2013-01-24 22:48:00,
2013-01-24 17:53:00,9.0,-2.7,30.27,North,0,2.0,3.0,58,0.00,,,0.00,WeatherCatV1.00B22,2013-01-24 22:53:00,
2013-01-24 17:58:00,8.9,-2.8,30.28,NNE,24,7.0,7.0,58,0.00,,,0.00,WeatherCatV1.00B22,2013-01-24 22:58:00,
2013-01-24 18:03:00,8.8,-2.9,30.28,NNW,333,3.0,5.0,58,0.00,,,0.00,WeatherCatV1.00B22,2013-01-24 23:03:00,
2013-01-24 18:08:00,8.7,-3.0,30.28,North,355,6.0,6.0,58,0.00,,,0.00,WeatherCatV1.00B22,2013-01-24 23:08:00,
2013-01-24 18:13:00,8.6,-3.1,30.28,NNW,338,1.0,6.0,58,0.00,,,0.00,WeatherCatV1.00B22,2013-01-24 23:13:00,
2013-01-24 18:18:00,8.5,-3.2,30.28,NE,36,6.0,7.0,58,0.00,,,0.00,WeatherCatV1.00B22,2013-01-24 23:18:00,
2013-01-24 18:23:00,8.4,-2.9,30.28,NE,34,2.0,6.0,59,0.00,,,0.00,WeatherCatV1.00B22,2013-01-24 23:23:00,
2013-01-24 18:28:00,8.3,-3.0,30.27,WNW,285,5.0,6.0,59,0.00,,,0.00,WeatherCatV1.00B22,2013-01-24 23:28:00,
2013-01-24 18:33:00,8.3,-3.0,30.28,WNW,302,2.0,7.0,59,0.00,,,0.00,WeatherCatV1.00B22,2013-01-24 23:33:00,
2013-01-24 18:38:00,8.3,-2.7,30.28,North,11,1.0,7.0,60,0.00,,,0.00,WeatherCatV1.00B22,2013-01-24 23:38:00,
2013-01-24 18:43:00,8.2,-2.8,30.28,West,263,2.0,7.0,60,0.00,,,0.00,WeatherCatV1.00B22,2013-01-24 23:43:00,
2013-01-24 18:48:00,8.1,-2.9,30.28,NNW,344,8.0,8.0,60,0.00,,,0.00,WeatherCatV1.00B22,2013-01-24 23:48:00,
2013-01-24 18:53:00,8.0,-3.0,30.29,NNW,346,3.0,6.0,60,0.00,,,0.00,WeatherCatV1.00B22,2013-01-24 23:53:00,
2013-01-24 18:58:00,8.0,-2.6,30.29,NW,313,1.0,5.0,61,0.00,,,0.00,WeatherCatV1.00B22,2013-01-24 23:58:00,
2013-01-24 19:03:00,8.0,-2.6,30.29,NE,53,0.0,8.0,61,0.00,,,0.00,WeatherCatV1.00B22,2013-01-25 00:03:00,
2013-01-24 19:08:00,7.9,-2.7,30.29,NE,34,4.0,11.0,61,0.00,,,0.00,WeatherCatV1.00B22,2013-01-25 00:08:00,
2013-01-24 19:13:00,7.9,-2.7,30.30,SSW,202,4.0,5.0,61,0.00,,,0.00,WeatherCatV1.00B22,2013-01-25 00:13:00,
2013-01-24 19:18:00,7.8,-2.8,30.30,NNW,340,1.0,4.0,61,0.00,,,0.00,WeatherCatV1.00B22,2013-01-25 00:18:00,
2013-01-24 19:23:00,7.7,-2.6,30.31,North,355,2.0,9.0,62,0.00,,,0.00,WeatherCatV1.00B22,2013-01-25 00:23:00,
2013-01-24 19:28:00,7.7,-2.6,30.31,NNW,336,1.0,8.0,62,0.00,,,0.00,WeatherCatV1.00B22,2013-01-25 00:28:00,
2013-01-24 19:33:00,7.6,-2.7,30.31,North,5,3.0,3.0,62,0.00,,,0.00,WeatherCatV1.00B22,2013-01-25 00:33:00,
2013-01-24 19:38:00,7.6,-2.7,30.31,NE,49,4.0,5.0,62,0.00,,,0.00,WeatherCatV1.00B22,2013-01-25 00:38:00,
2013-01-24 19:43:00,7.6,-2.7,30.32,NW,323,3.0,8.0,62,0.00,,,0.00,WeatherCatV1.00B22,2013-01-25 00:43:00,
2013-01-24 19:48:00,7.6,-3.0,30.32,NW,308,7.0,11.0,61,0.00,,,0.00,WeatherCatV1.00B22,2013-01-25 00:48:00,
2013-01-24 19:53:00,7.6,-3.0,30.32,NNW,336,2.0,6.0,61,0.00,,,0.00,WeatherCatV1.00B22,2013-01-25 00:53:00,
2013-01-24 19:58:00,7.6,-3.0,30.32,North,9,7.0,9.0,61,0.00,,,0.00,WeatherCatV1.00B22,2013-01-25 00:58:00,
2013-01-24 20:03:00,7.6,-3.3,30.32,NNW,340,5.0,6.0,60,0.00,,,0.00,WeatherCatV1.00B22,2013-01-25 01:03:00,
2013-01-24 20:08:00,7.6,-3.7,30.31,West,279,1.0,7.0,59,0.00,,,0.00,WeatherCatV1.00B22,2013-01-25 01:08:00,
2013-01-24 20:13:00,7.6,-3.7,30.31,NNW,342,3.0,3.0,59,0.00,,,0.00,WeatherCatV1.00B22,2013-01-25 01:13:00,
2013-01-24 20:18:00,7.6,-3.7,30.31,North,5,2.0,8.0,59,0.00,,,0.00,WeatherCatV1.00B22,2013-01-25 01:18:00,
2013-01-24 20:23:00,7.5,-3.4,30.31,North,0,3.0,10.0,60,0.00,,,0.00,WeatherCatV1.00B22,2013-01-25 01:23:00,
2013-01-24 20:28:00,7.5,-3.4,30.31,NNW,327,4.0,6.0,60,0.00,,,0.00,WeatherCatV1.00B22,2013-01-25 01:28:00,
2013-01-24 20:33:00,7.4,-3.9,30.31,North,5,1.0,5.0,59,0.00,,,0.00,WeatherCatV1.00B22,2013-01-25 01:33:00,
2013-01-24 20:38:00,7.3,-4.0,30.31,NNW,327,1.0,7.0,59,0.00,,,0.00,WeatherCatV1.00B22,2013-01-25 01:38:00,
2013-01-24 20:43:00,7.3,-4.0,30.31,ENE,64,4.0,5.0,59,0.00,,,0.00,WeatherCatV1.00B22,2013-01-25 01:43:00,
2013-01-24 20:48:00,7.2,-4.1,30.32,NE,41,2.0,7.0,59,0.00,,,0.00,WeatherCatV1.00B22,2013-01-25 01:48:00,
2013-01-24 20:53:00,7.1,-4.5,30.32,NE,47,3.0,10.0,58,0.00,,,0.00,WeatherCatV1.00B22,2013-01-25 01:53:00,
2013-01-24 20:58:00,7.0,-4.6,30.32,East,101,1.0,4.0,58,0.00,,,0.00,WeatherCatV1.00B22,2013-01-25 01:58:00,
2013-01-24 21:03:00,6.9,-4.7,30.32,North,5,3.0,8.0,58,0.00,,,0.00,WeatherCatV1.00B22,2013-01-25 02:03:00,
2013-01-24 21:08:00,6.9,-4.4,30.33,NNW,329,1.0,7.0,59,0.00,,,0.00,WeatherCatV1.00B22,2013-01-25 02:08:00,
2013-01-24 21:13:00,6.7,-4.5,30.33,NE,42,1.0,5.0,59,0.00,,,0.00,WeatherCatV1.00B22,2013-01-25 02:13:00,
2013-01-24 21:18:00,6.6,-4.6,30.33,NE,42,2.0,4.0,59,0.00,,,0.00,WeatherCatV1.00B22,2013-01-25 02:18:00,
2013-01-24 21:23:00,6.5,-4.7,30.33,North,355,3.0,4.0,59,0.00,,,0.00,WeatherCatV1.00B22,2013-01-25 02:23:00,
2013-01-24 21:28:00,6.4,-4.8,30.33,North,5,1.0,3.0,59,0.00,,,0.00,WeatherCatV1.00B22,2013-01-25 02:28:00,
2013-01-24 21:33:00,6.3,-4.6,30.33,NW,319,2.0,4.0,60,0.00,,,0.00,WeatherCatV1.00B22,2013-01-25 02:33:00,
2013-01-24 21:38:00,6.4,-4.8,30.33,NNW,336,2.0,3.0,59,0.00,,,0.00,WeatherCatV1.00B22,2013-01-25 02:38:00,
2013-01-24 21:43:00,6.3,-4.9,30.33,NNW,339,1.0,5.0,59,0.00,,,0.00,WeatherCatV1.00B22,2013-01-25 02:43:00,
2013-01-24 21:48:00,6.3,-4.9,30.33,NW,324,5.0,5.0,59,0.00,,,0.00,WeatherCatV1.00B22,2013-01-25 02:48:00,
2013-01-24 21:53:00,6.3,-4.9,30.33,NE,42,2.0,3.0,59,0.00,,,0.00,WeatherCatV1.00B22,2013-01-25 02:53:00,
2013-01-24 21:58:00,6.2,-5.0,30.33,NE,46,3.0,6.0,59,0.00,,,0.00,WeatherCatV1.00B22,2013-01-25 02:58:00,
2013-01-24 22:03:00,6.2,-5.0,30.34,NE,51,1.0,2.0,59,0.00,,,0.00,WeatherCatV1.00B22,2013-01-25 03:03:00,
2013-01-24 22:08:00,6.0,-5.2,30.34,NNE,27,2.0,5.0,59,0.00,,,0.00,WeatherCatV1.00B22,2013-01-25 03:08:00,
2013-01-24 22:13:00,6.0,-5.2,30.34,NNE,24,1.0,1.0,59,0.00,,,0.00,WeatherCatV1.00B22,2013-01-25 03:13:00,
2013-01-24 22:18:00,5.9,-5.3,30.35,NNE,26,2.0,2.0,59,0.00,,,0.00,WeatherCatV1.00B22,2013-01-25 03:18:00,
2013-01-24 22:23:00,5.9,-5.0,30.35,NNW,340,3.0,4.0,60,0.00,,,0.00,WeatherCatV1.00B22,2013-01-25 03:23:00,
2013-01-24 22:28:00,5.9,-5.0,30.35,North,349,1.0,3.0,60,0.00,,,0.00,WeatherCatV1.00B22,2013-01-25 03:28:00,
2013-01-24 22:33:00,5.9,-5.0,30.35,North,349,1.0,2.0,60,0.00,,,0.00,WeatherCatV1.00B22,2013-01-25 03:33:00,
2013-01-24 22:38:00,5.7,-4.8,30.35,North,351,0.0,1.0,61,0.00,,,0.00,WeatherCatV1.00B22,2013-01-25 03:38:00,
2013-01-24 22:43:00,5.6,-4.9,30.35,NNE,22,1.0,3.0,61,0.00,,,0.00,WeatherCatV1.00B22,2013-01-25 03:43:00,
2013-01-24 22:48:00,5.5,-5.0,30.35,NNE,22,0.0,3.0,61,0.00,,,0.00,WeatherCatV1.00B22,2013-01-25 03:48:00,
2013-01-24 22:53:00,5.5,-4.7,30.36,NNE,15,1.0,2.0,62,0.00,,,0.00,WeatherCatV1.00B22,2013-01-25 03:53:00,
2013-01-24 22:58:00,5.4,-4.8,30.36,NNE,14,1.0,4.0,62,0.00,,,0.00,WeatherCatV1.00B22,2013-01-25 03:58:00,
2013-01-24 23:03:00,5.4,-4.8,30.36,NNE,14,1.0,3.0,62,0.00,,,0.00,WeatherCatV1.00B22,2013-01-25 04:03:00,
2013-01-24 23:08:00,5.3,-4.8,30.36,NNW,338,3.0,4.0,62,0.00,,,0.00,WeatherCatV1.00B22,2013-01-25 04:08:00,
2013-01-24 23:13:00,5.4,-4.8,30.36,NW,321,1.0,2.0,62,0.00,,,0.00,WeatherCatV1.00B22,2013-01-25 04:13:00,
2013-01-24 23:18:00,5.5,-4.3,30.36,WNW,292,1.0,2.0,63,0.00,,,0.00,WeatherCatV1.00B22,2013-01-25 04:18:00,
2013-01-24 23:23:00,5.4,-4.4,30.36,NNE,19,0.0,3.0,63,0.00,,,0.00,WeatherCatV1.00B22,2013-01-25 04:23:00,
2013-01-24 23:28:00,5.3,-4.5,30.36,NNE,19,1.0,3.0,63,0.00,,,0.00,WeatherCatV1.00B22,2013-01-25 04:28:00,
2013-01-24 23:33:00,5.1,-4.7,30.37,NNE,19,2.0,3.0,63,0.00,,,0.00,WeatherCatV1.00B22,2013-01-25 04:33:00,
2013-01-24 23:38:00,5.2,-4.6,30.36,North,11,2.0,3.0,63,0.00,,,0.00,WeatherCatV1.00B22,2013-01-25 04:38:00,
2013-01-24 23:43:00,5.2,-4.0,30.36,North,5,1.0,2.0,65,0.00,,,0.00,WeatherCatV1.00B22,2013-01-25 04:43:00,
2013-01-24 23:48:00,5.2,-4.3,30.37,North,5,1.0,2.0,64,0.00,,,0.00,WeatherCatV1.00B22,2013-01-25 04:48:00,
2013-01-24 23:53:00,5.1,-4.7,30.36,North,0,2.0,3.0,63,0.00,,,0.00,WeatherCatV1.00B22,2013-01-25 04:53:00,
2013-01-24 23:58:00,5.1,-4.7,30.37,North,0,1.0,2.0,63,0.00,,,0.00,WeatherCatV1.00B22,2013-01-25 04:58:00,